Tracking 19909 objects as of 22-Oct-2019
HD Live streaming from Space Station
objects crossing your sky now

NAVSTAR 10 (USA 5)

Track NAVSTAR 10 (USA 5) now!
NAVSTAR 10 (USA 5) is classified as:


NORAD ID: 15271
Int'l Code: 1984-097A
Perigee: 20,551.1 km
Apogee: 21,278.6 km
Inclination: 63.5 °
Period: 747.6 minutes
Semi major axis: 27285 km
RCS: 1.5246 m2 (large)
Launch date: September 8, 1984
Source: United States (US)
Launch site: AIR FORCE WESTERN TEST RANGE (AFWTR)
aabbcc
Your satellite tracking list
Your tracking list is empty




NASA's NSSDC Master Catalog

Two Line Element Set (TLE):
1 15271U 84097A   19295.51450265 -.00000063  00000-0  00000+0 0  9997
2 15271  63.5304   2.9934 0133312 228.0831 138.4630  1.92618431249514
Source of the keplerian elements: AFSPC